Novomar — 5BCT2 — position and weather

sailwx.info

Track history (hours):
 
Tides and Currents Weather Stations Pressure Air Temp Water Temp Dewpoint Dewpoint Depression Visibility Wind Speed Wind Dir Waves Ship Positions

Novomar

Last reported at 2016-May-02 22:32 UTC. Time now 2016-May-04 01:57 UTC.
Position N 39°13' W 009°51'.

Length 89 m; draft 3.6 m.

Type: Cargo ship. MMSI: 210974000.

Date/timePositionNaut miles runAvg speedWind from/ knotsBaromVisibWave heightAir tempDewpointWater temp
2016-May-02 22:32N 39°13' W 009°51'19 9.0
2016-May-02 20:23N 38°54' W 009°52'8 9.0
2016-May-02 19:33N 38°46' W 009°51'9 9.0
2016-May-02 18:33N 38°37' W 009°50'9 8.8
2016-May-02 17:33N 38°29' W 009°47'9 9.0
2016-May-02 16:33N 38°20' W 009°45'9 9.3
2016-May-02 15:33N 38°11' W 009°42'9 9.4
2016-May-02 14:33N 38°02' W 009°40'9 9.4
2016-May-02 13:33N 37°53' W 009°37'9 9.4
2016-May-02 12:33N 37°44' W 009°34'10 9.5
2016-May-02 11:32N 37°34' W 009°31'9 9.3
2016-May-02 10:33N 37°25' W 009°28'10 9.4
2016-May-02 09:32N 37°16' W 009°25'9 8.7
2016-May-02 08:32N 37°08' W 009°24'8 8.4
2016-May-02 07:32N 36°59' W 009°21'  
2016-Apr-27 15:33N 35°60' W 005°14'1111.5
2016-Apr-27 14:33N 35°58' W 005°28'110 9.7
2016-Apr-27 03:13N 36°14' W 007°43'95 9.4
2016-Apr-26 17:10N 36°48' W 009°33'7910.2
2016-Apr-26 09:28N 38°04' W 009°55'2310.6
2016-Apr-26 07:19N 38°27' W 010°01'910.5
2016-Apr-26 06:28N 38°36' W 010°04'2110.2
2016-Apr-26 04:26N 38°56' W 010°06'  
2016-Apr-23 00:23N 49°46' W 003°33'1011.6
2016-Apr-22 23:33N 49°50' W 003°20'1110.9
2016-Apr-22 22:33N 49°55' W 003°04'  
Track history (hours):
 
Tides and Currents Weather Stations Pressure Air Temp Water Temp Dewpoint Dewpoint Depression Visibility Wind Speed Wind Dir Waves Ship Positions

Novomar

Last reported at 2016-May-02 22:32 UTC. Time now 2016-May-04 01:57 UTC.
Position N 39°13' W 009°51'.

Length 89 m; draft 3.6 m.

Type: Cargo ship. MMSI: 210974000.

Date/timePositionNaut miles runAvg speedWind from/ knotsBaromVisibWave heightAir tempDewpointWater temp
2016-May-02 22:32N 39°13' W 009°51'19 9.0
2016-May-02 20:23N 38°54' W 009°52'8 9.0
2016-May-02 19:33N 38°46' W 009°51'9 9.0
2016-May-02 18:33N 38°37' W 009°50'9 8.8
2016-May-02 17:33N 38°29' W 009°47'9 9.0
2016-May-02 16:33N 38°20' W 009°45'9 9.3
2016-May-02 15:33N 38°11' W 009°42'9 9.4
2016-May-02 14:33N 38°02' W 009°40'9 9.4
2016-May-02 13:33N 37°53' W 009°37'9 9.4
2016-May-02 12:33N 37°44' W 009°34'10 9.5
2016-May-02 11:32N 37°34' W 009°31'9 9.3
2016-May-02 10:33N 37°25' W 009°28'10 9.4
2016-May-02 09:32N 37°16' W 009°25'9 8.7
2016-May-02 08:32N 37°08' W 009°24'8 8.4
2016-May-02 07:32N 36°59' W 009°21'  
2016-Apr-27 15:33N 35°60' W 005°14'1111.5
2016-Apr-27 14:33N 35°58' W 005°28'110 9.7
2016-Apr-27 03:13N 36°14' W 007°43'95 9.4
2016-Apr-26 17:10N 36°48' W 009°33'7910.2
2016-Apr-26 09:28N 38°04' W 009°55'2310.6
2016-Apr-26 07:19N 38°27' W 010°01'910.5
2016-Apr-26 06:28N 38°36' W 010°04'2110.2
2016-Apr-26 04:26N 38°56' W 010°06'  
2016-Apr-23 00:23N 49°46' W 003°33'1011.6
2016-Apr-22 23:33N 49°50' W 003°20'1110.9
2016-Apr-22 22:33N 49°55' W 003°04'  

Dump ship's entire track history